Weather History for Blakely, GA

Change the Weather History Date:

Friday, January 4, 2013

  Actual Average (KDHN) Record (KDHN)
Temperature  
Mean Temperature 46 °F 49 °F  
Max Temperature 57 °F 60 °F 79 °F (1939)
Min Temperature 35 °F 38 °F 23 °F (1999)
Degree Days  
Heating Degree Days 19 16  
Month to date heating degree days 64  
Since 1 July heating degree days 777  
Moisture  
Dew Point 39 °F    
Average Humidity 83    
Maximum Humidity 100    
Minimum Humidity 55    
Precipitation  
Precipitation 0.00 in 0.15 in 0.78 in (1949)
Month to date precipitation 0.60  
Year to date precipitation 0.60  
Sea Level Pressure  
Sea Level Pressure 30.35 in    
Wind  
Wind Speed 2 mph (North)    
Max Wind Speed 7 mph    
Max Gust Speed -    
Visibility 10 miles    
Events      
T = Trace of Precipitation, MM = Missing Value Source: NWS Daily Summary

Daily Weather History Graph

Daily Weather History Graph

Search for Another Location

Airport:

Trip Planner

Search our weather history database for the weather conditions in past years. The results will help you decide how hot, cold, wet, or windy it might be!

Date:

Astronomy

Jan. 04, 2013 Rise Set
Actual Time 7:39 AM EST 5:50 PM EST
Civil Twilight 7:12 AM EST 6:16 PM EST
Nautical Twilight 6:42 AM EST 6:47 PM EST
Astronomical Twilight 6:13 AM EST 7:16 PM EST
Moon No Moon Rise 11:50 AM EST (1/4)
Length of Visible Light 11h 04m
Length of Day
10h 10m
Waning Gibbous, 55% of the Moon is Illuminated
Jan 4
Waning Gibbous
Jan 4
Last Quarter
Jan 11
New
Jan 18
First Quarter
Jan 26
Full

Hourly Weather History & Observations

Time (EST) Temp. Windchill Dew Point Humidity Pressure Visibility Wind Dir Wind Speed Gust Speed Precip Events Conditions
12:15 AM 41.0 °F 39.0 °F 37.4 °F 87% 30.32 in 10.0 mi North 3.5 mph - N/A   Clear
12:35 AM 41.0 °F - 37.4 °F 87% 30.32 in 10.0 mi Calm Calm - N/A   Clear
12:55 AM 39.2 °F 37.0 °F 37.4 °F 93% 30.31 in 10.0 mi NNE 3.5 mph - N/A   Clear
1:15 AM 37.4 °F - 35.6 °F 93% 30.31 in 10.0 mi Calm Calm - N/A   Clear
1:35 AM 37.4 °F - 35.6 °F 93% 30.31 in 10.0 mi Calm Calm - N/A   Clear
1:55 AM 37.4 °F - 35.6 °F 93% 30.32 in 10.0 mi Calm Calm - N/A   Clear
2:35 AM 35.6 °F - 35.6 °F 100% 30.31 in 10.0 mi Calm Calm - N/A   Clear
2:55 AM 37.4 °F - 35.6 °F 93% 30.33 in 10.0 mi Calm Calm - N/A   Clear
3:15 AM 35.6 °F - 35.6 °F 100% 30.33 in 10.0 mi Calm Calm - N/A   Clear
3:35 AM 35.6 °F 32.8 °F 35.6 °F 100% 30.32 in 10.0 mi North 3.5 mph - N/A   Clear
3:55 AM 35.6 °F 32.8 °F 33.8 °F 93% 30.31 in 10.0 mi NNE 3.5 mph - N/A   Clear
4:15 AM 35.6 °F - 33.8 °F 93% 30.32 in 10.0 mi Calm Calm - N/A   Clear
6:55 AM 35.6 °F 30.7 °F 33.8 °F 93% 30.33 in 10.0 mi North 5.8 mph - N/A   Clear
7:15 AM 35.6 °F 32.8 °F 33.8 °F 93% 30.33 in 10.0 mi NNE 3.5 mph - N/A   Clear
7:35 AM 35.6 °F - 32.0 °F 87% 30.34 in 10.0 mi Calm Calm - N/A   Clear
7:55 AM 35.6 °F - 33.8 °F 93% 30.35 in 10.0 mi Calm Calm - N/A   Clear
8:15 AM 35.6 °F - 33.8 °F 93% 30.36 in 10.0 mi Calm Calm - N/A   Clear
8:35 AM 35.6 °F 32.8 °F 33.8 °F 93% 30.38 in 10.0 mi NNW 3.5 mph - N/A   Clear
8:55 AM 35.6 °F - 33.8 °F 93% 30.38 in 10.0 mi Calm Calm - N/A   Clear
9:15 AM 37.4 °F - 33.8 °F 87% 30.39 in 10.0 mi Calm Calm - N/A   Clear
9:35 AM 39.2 °F 35.9 °F 33.8 °F 81% 30.39 in 10.0 mi NNE 4.6 mph - N/A   Clear
9:55 AM 41.0 °F - 35.6 °F 81% 30.40 in 10.0 mi Calm Calm - N/A   Clear
10:15 AM 41.0 °F 38.0 °F 35.6 °F 81% 30.40 in 10.0 mi North 4.6 mph - N/A   Clear
10:35 AM 42.8 °F 41.1 °F 37.4 °F 81% 30.40 in 10.0 mi North 3.5 mph - N/A   Clear
10:55 AM 44.6 °F 42.2 °F 37.4 °F 76% 30.41 in 10.0 mi North 4.6 mph - N/A   Clear
11:15 AM 44.6 °F 42.2 °F 37.4 °F 76% 30.41 in 10.0 mi NNE 4.6 mph - N/A   Clear
11:35 AM 46.4 °F 45.2 °F 41.0 °F 81% 30.40 in 10.0 mi North 3.5 mph - N/A   Clear
11:55 AM 48.2 °F - 41.0 °F 76% 30.38 in 10.0 mi North 4.6 mph - N/A   Clear
12:15 PM 50.0 °F - 41.0 °F 71% 30.38 in 10.0 mi NNE 4.6 mph - N/A   Clear
12:35 PM 51.8 °F - 42.8 °F 71% 30.37 in 10.0 mi Calm Calm - N/A   Clear
12:55 PM 51.8 °F - 42.8 °F 71% 30.36 in 10.0 mi North 6.9 mph - N/A   Clear
1:15 PM 51.8 °F - 42.8 °F 71% 30.35 in 10.0 mi NNW 6.9 mph - N/A   Clear
1:35 PM 53.6 °F - 42.8 °F 67% 30.35 in 10.0 mi Calm Calm - N/A   Clear
1:55 PM 55.4 °F - 42.8 °F 63% 30.34 in 10.0 mi North 3.5 mph - N/A   Clear
2:15 PM 55.4 °F - 42.8 °F 63% 30.34 in 10.0 mi Calm Calm - N/A   Clear
2:35 PM 55.4 °F - 42.8 °F 63% 30.33 in 10.0 mi NW 3.5 mph - N/A   Clear
2:55 PM 55.4 °F - 42.8 °F 63% 30.33 in 10.0 mi NE 4.6 mph - N/A   Clear
3:15 PM 55.4 °F - 41.0 °F 58% 30.33 in 10.0 mi Calm Calm - N/A   Clear
3:35 PM 55.4 °F - 41.0 °F 58% 30.33 in 10.0 mi Calm Calm - N/A   Clear
3:55 PM 57.2 °F - 41.0 °F 55% 30.33 in 10.0 mi NNW 5.8 mph - N/A   Clear
4:15 PM 55.4 °F - 41.0 °F 58% 30.33 in 10.0 mi NNW 4.6 mph - N/A   Clear
4:35 PM 55.4 °F - 41.0 °F 58% 30.33 in 10.0 mi NNW 5.8 mph - N/A   Clear
4:55 PM 55.4 °F - 41.0 °F 58% 30.33 in 10.0 mi NNW 4.6 mph - N/A   Clear
5:15 PM 53.6 °F - 39.2 °F 58% 30.33 in 10.0 mi Calm Calm - N/A   Clear
5:35 PM 51.8 °F - 39.2 °F 62% 30.33 in 10.0 mi Calm Calm - N/A   Clear
5:55 PM 50.0 °F - 41.0 °F 71% 30.34 in 10.0 mi NW 3.5 mph - N/A   Clear
6:15 PM 46.4 °F 45.2 °F 41.0 °F 81% 30.34 in 10.0 mi NNW 3.5 mph - N/A   Clear
6:35 PM 46.4 °F - 41.0 °F 81% 30.34 in 10.0 mi Calm Calm - N/A   Clear
6:55 PM 46.4 °F - 42.8 °F 87% 30.35 in 10.0 mi Calm Calm - N/A   Clear
7:15 PM 46.4 °F - 41.0 °F 81% 30.35 in 10.0 mi Calm Calm - N/A   Clear
7:35 PM 44.6 °F - 41.0 °F 87% 30.36 in 10.0 mi Calm Calm - N/A   Clear
7:55 PM 44.6 °F - 41.0 °F 87% 30.36 in 10.0 mi Calm Calm - N/A   Clear
8:15 PM 44.6 °F - 42.8 °F 93% 30.37 in 10.0 mi Calm Calm - N/A   Clear
8:35 PM 42.8 °F - 41.0 °F 93% 30.37 in 10.0 mi Calm Calm - N/A   Clear
8:55 PM 42.8 °F - 41.0 °F 93% 30.38 in 10.0 mi Calm Calm - N/A   Clear
9:15 PM 42.8 °F - 41.0 °F 93% 30.38 in 10.0 mi Calm Calm - N/A   Clear
9:35 PM 42.8 °F - 41.0 °F 93% 30.38 in 10.0 mi Calm Calm - N/A   Clear
9:55 PM 41.0 °F - 41.0 °F 100% 30.38 in 10.0 mi Calm Calm - N/A   Clear
10:15 PM 41.0 °F - 41.0 °F 100% 30.38 in 10.0 mi Calm Calm - N/A   Clear
10:35 PM 41.0 °F - 41.0 °F 100% 30.38 in 10.0 mi Calm Calm - N/A   Clear
10:55 PM 39.2 °F - 39.2 °F 100% 30.37 in 10.0 mi Calm Calm - N/A   Clear
11:15 PM 39.2 °F - 39.2 °F 100% 30.37 in 10.0 mi Calm Calm - N/A   Clear
11:35 PM 39.2 °F - 39.2 °F 100% 30.37 in 10.0 mi Calm Calm - N/A   Clear
11:55 PM 37.4 °F - 37.4 °F 100% 30.37 in 10.0 mi Calm Calm - N/A   Clear